New River MCAS, H, Mccutcheon Fld, Airport Jacksonville US
ICAO: KNCA
IATA: NCA
Category: Medium
Scheduled Services: No

Elevation: 26 ft
TransAlt. 18000 ft.

Airport Communications:
CHERRY POINT APP/DEP:119.35
ARRIVAL:124.85
ATIS:28.832
CLNC DEL:23.902
GND:121.8
OPS:23.64
PMSV METRO:24.477
TWR:120

KNCA Zoom In..

Runways:

(A) RW 01 length 4790 ft width 150 ft
ILS 111.10 / hdg 8

(B) RW 05 length 5114 ft width 150 ft
---- / hdg 53

(C) RW 19 length 4790 ft width 150 ft
---- / hdg 188

(D) RW 23 length 5114 ft width 150 ft
---- / hdg 233

Location; KNCA
Day. 23 / Time. 09.56 Zulu
* Altimeter: 29.81
* Temperature: 24° c. 75.2°f.
* Wind from: 130° Speed 09 kn.
Dewpoint: 22° c.
Visibility: 10 Statute Miles.
Clouds: Clear (automated report).

KNCA 230956Z AUTO 13009KT 10SM CLR 24/22 A2981 RMK AO2 RAE21 SLP097 P0001 T02390222


Wind From 130°
Speed 09 kn.

 
 
jpsmedia.com for Web Design worldairports.se 2018   terms of use